Regional Weather Roundup
Issued by NWS

Home | Current Version | Previous Version | Graphics & Text | Print | Product List | Glossary On
Versions: 1 2 3 4 5 6 7 8 9 10 11 12 13 14 15 16 17 18 19 20 21 22 23 24 25 26 27 28 29 30 31 32 33 34 35 36 37 38 39 40 41 42 43 44 45 46 47 48 49 50
000
ASUS43 KLOT 020503
RWRIL

ILLINOIS REGIONAL WEATHER ROUNDUP
NATIONAL WEATHER SERVICE CHICAGO/ROMEOVILLE IL
1200 AM CDT MON MAY 02 2016

NOTE: "FAIR" INDICATES FEW OR NO CLOUDS BELOW 12,000 FEET WITH NO
SIGNIFICANT WEATHER AND/OR OBSTRUCTIONS TO VISIBILITY.

* THESE STATIONS ARE NOT UNDER NWS QUALITY CONTROL. THEY ALSO MAY NOT
  REPORT WEATHER SUCH AS PRECIPITATION OR FOG.

ILZ001-002-007-009-015-016-024-020600-
NORTHWEST ILLINOIS

CITY           SKY/WX    TMP DP  RH WIND       PRES   REMARKS
MOLINE         CLOUDY    50  47  89 CALM      30.03R
STERLING*      CLOUDY    48  46  93 N6        30.04S
$$

ILZ003-004-008-010-011-017-018-020600-
NORTH CENTRAL ILLINOIS

CITY           SKY/WX    TMP DP  RH WIND       PRES   REMARKS
ROCKFORD       DRIZZLE   48  46  93 N8        30.05R
FREEPORT*      CLOUDY    46  44  91 N5        30.06S
DE KALB*       CLOUDY    47  46  96 N8        30.03R
$$

ILZ005-006-012>014-019>023-020600-
NORTHEAST ILLINOIS

CITY           SKY/WX    TMP DP  RH WIND       PRES   REMARKS
CHICAGO-OHARE  CLOUDY    45  43  93 NE14      29.99F
CHICAGO-MIDWAY CLOUDY    47  44  90 NE17      29.97F
AURORA         CLOUDY    49  46  90 N12       30.01R
LANSING*       CLOUDY    47  46  98 NE12      29.96F FOG
WAUKEGAN       LGT RAIN  45  42  89 NE12G18   30.03R
DUPAGE AIRPORT CLOUDY    47  43  86 NE13      30.00R
WHEELING       LGT RAIN  44  42  93 NE10      30.02F
NORTHERLY ISL    N/A     45  43  93 MISG        N/A
NORTHERLY ISL    N/A     45  43  93 MISG        N/A
$$

LMZ740>746-020600-
SOUTHERN LAKE MICHIGAN

STATION/POSITION SKY/WX   TEMP    WIND        PRES    VSBY  WAVE
                          AIR SEA DIR/SP/G                  HT/PER
                          (F)     (DEG/KT/KT) (MB)    (MI)  (FT/S)
SOUTHERN BUOY              42 40   50/  8/  8 1016.8          2/ 5
HARRISON CRIB              46      20/ 16/ 18   N/A
BURNHAM HARBOR             44     350/ 13/ 16   N/A
CALUMET HARBOR             46     360/ 10/ 13 1014.8R
BURNS HARBOR               47      30/ 12/ 23 1015.2S
MICHIGAN CITY              47      30/ 18/ 20   N/A
ST. JOSEPH                 48 47                N/A           2/ 4
$$

ILZ025>027-034>036-040-047-049-050-058-095>099-020600-
WEST-CENTRAL ILLINOIS

CITY           SKY/WX    TMP DP  RH WIND       PRES   REMARKS
QUINCY         CLOUDY    50  48  93 NW9       30.05R
MACOMB*        CLOUDY    49  48  97 N7        30.06R
$$

ILZ028>032-037-038-041>044-048-051>054-059>061-020600-
CENTRAL ILLINOIS

CITY           SKY/WX    TMP DP  RH WIND       PRES   REMARKS
BLOOMINGTON    CLOUDY    49  49 100 N9        30.01R FOG
DECATUR        CLOUDY    54  49  83 NW12      29.99R
PEORIA         CLOUDY    49  46  90 N6        30.02R
SPRINGFIELD    CLOUDY    53  51  93 NW8       30.01R
TAYLORVILLE    NOT AVBL
$$

ILZ033-039-045-046-055>057-062-063-020600-
EAST-CENTRAL ILLINOIS

CITY           SKY/WX    TMP DP  RH WIND       PRES   REMARKS
CHAMPAIGN      CLOUDY    51  48  89 N8        29.97R
MATTOON        CLOUDY    54  50  86 N13       29.97R
$$

ILZ079-100>102-020600-
SOUTHWEST ILLINOIS

CITY           SKY/WX    TMP DP  RH WIND       PRES   REMARKS
ALTON          PTCLDY    53  50  91 NW5       30.01S
BELLEVILLE     CLEAR     55  53  92 NW7       30.00R
CAHOKIA*       CLEAR     56  49  77 NW8       30.01S
SPARTA*        CLEAR     57  48  73 NW7       30.02R
$$

ILZ064>066-069>071-074>076-080>082-084>086-088>090-092>094-020600-
SOUTH-CENTRAL ILLINOIS

CITY           SKY/WX    TMP DP  RH WIND       PRES   REMARKS
CARBONDALE     CLEAR     58  46  64 NW7       30.00R
MT. VERNON     CLEAR     57  48  72 CALM      30.01R
SALEM*         PTCLDY    57  53  84 NW7       30.00R
$$

ILZ067-068-072-073-078-083-087-091-020600-
SOUTHEAST ILLINOIS

CITY           SKY/WX    TMP DP  RH WIND       PRES   REMARKS
LAWRENCEVILLE  PTCLDY    59  55  87 NW14      29.96R
FLORA*         PTCLDY    58  54  87 N3        29.99R
HARRISBURG*    CLEAR     60  55  82 NW6       30.00R
ROBINSON*      MOCLDY    58  55  88 NW6       29.97R
$$

ABBREVIATIONS USED IN REMARKS
   TC - TEMPERATURE IN CELSIUS
  WCI - WIND CHILL INDEX
   HX - HEAT INDEX
  VSB - VISIBILITY
$$





USA.gov is the U.S. government's official web portal to all federal, state and local government web resources and services.